Fairbanks, AK

9:28 PM AKDT on August 20, 2019 (GMT -0800)
Fairbanks International

Weather History for PAFA - December, 1974

Change the Weather History Date:

Monday, December 2, 1974

  Actual Average Record
Temperature  
Mean Temperature -1 °F -2 °F  
Max Temperature 0 °F 6 °F 41 °F (1992)
Min Temperature -2 °F -11 °F -46 °F (1906)
Degree Days  
Heating Degree Days 66 67  
Month to date heating degree days 134  
Since 1 July heating degree days 4265  
Cooling Degree Days 0 0  
Month to date cooling degree days 0  
Year to date cooling degree days 61  
Moisture  
Dew Point -17 °F    
Average Humidity 47    
Maximum Humidity 57    
Minimum Humidity 42    
Precipitation  
Precipitation 0.00 in 0.02 in 0.39 in (2014)
Month to date precipitation 0.04  
Year to date precipitation 10.21  
Snow  
Snow 0.00 in 0.30 in 6.30 in (1992)
Month to date snowfall 0.7  
Since 1 July snowfall 26.5  
Snow Depth -    
Sea Level Pressure  
Sea Level Pressure 30.00 in    
Wind  
Wind Speed 11 mph (North)    
Max Wind Speed 15 mph    
Max Gust Speed -    
Visibility 10 miles    
Events Snow    
T = Trace of Precipitation, MM = Missing Value Source: NWS Daily Summary

Daily Weather History Graph

Daily Weather History Graph

Search for Another Location

Airport or City:

Astronomy

Dec. 02, 1974 Rise Set
Actual Time 9:21 AM AHST 1:59 PM AHST
Civil Twilight 8:06 AM AHST 3:14 PM AHST
Nautical Twilight 6:58 AM AHST 4:23 PM AHST
Astronomical Twilight 5:57 AM AHST 5:23 PM AHST
Moon 6:21 PM AHST (12/2) 11:35 AM AHST (12/2)
Length of Visible Light 7h 08m
Length of Day
4h 37m
Waning Gibbous, 86% of the Moon is Illuminated
Dec 2
Waning Gibbous
Dec 6
Last Quarter
Dec 13
New
Dec 21
First Quarter
Dec 28
Full

Hourly Weather History & Observations

Time (AHST) Temp. Windchill Dew Point Humidity Pressure Visibility Wind Dir Wind Speed Gust Speed Precip Events Conditions
12:00 AM -0.0 °F -17.1 °F -16.1 °F 47% 30.16 in 10.0 mi North 11.5 mph - N/A Snow Light Snow
1:00 AM -0.0 °F -18.7 °F -16.1 °F 47% 30.15 in 7.0 mi North 13.8 mph - N/A Snow Light Snow
2:00 AM -0.0 °F -19.4 °F -15.0 °F 49% 30.14 in 7.0 mi North 15.0 mph - N/A Snow Light Snow
3:00 AM -0.0 °F -18.7 °F -16.1 °F 47% 30.13 in 7.0 mi NNE 13.8 mph - N/A Snow Light Snow
4:00 AM -0.0 °F -18.0 °F -16.1 °F 47% 30.11 in 7.0 mi North 12.7 mph - N/A Snow Light Snow
5:00 AM -0.0 °F -18.7 °F -16.1 °F 47% 30.11 in 7.0 mi NNE 13.8 mph - N/A Snow Light Snow
5:16 AM - - - N/A% 30.06 in 3.0 mi NNE 11.5 mph - N/A   Unknown
6:00 AM -0.0 °F -16.3 °F -11.9 °F 57% 30.10 in 4.0 mi NNE 10.4 mph - N/A Snow Light Snow
7:00 AM -0.0 °F -17.1 °F -14.1 °F 52% 30.08 in 7.0 mi North 11.5 mph - N/A Snow Light Snow
8:00 AM -0.9 °F -16.4 °F -16.1 °F 49% 30.07 in 7.0 mi North 9.2 mph - N/A Snow Light Snow
9:00 AM -0.9 °F -15.3 °F -15.0 °F 52% 30.05 in 10.0 mi North 8.1 mph - N/A Snow Light Snow
10:00 AM -0.9 °F -16.4 °F -15.0 °F 52% 30.05 in 10.0 mi NNW 9.2 mph - N/A Snow Light Snow
11:00 AM -0.9 °F -16.4 °F -15.0 °F 52% 30.03 in 10.0 mi NNW 9.2 mph - N/A Snow Light Snow
12:00 PM -0.9 °F -16.4 °F -17.0 °F 47% 30.01 in 20.0 mi North 9.2 mph - N/A   Unknown
1:00 PM -2.0 °F -16.6 °F -15.0 °F 54% 29.99 in 20.0 mi North 8.1 mph - N/A   Mostly Cloudy
2:00 PM -2.9 °F -17.7 °F -18.0 °F 49% 29.97 in 20.0 mi North 8.1 mph - N/A Snow Light Snow
3:00 PM -2.9 °F -18.8 °F -20.9 °F 42% 29.96 in 20.0 mi NNW 9.2 mph - N/A   Overcast
4:00 PM -2.9 °F -19.8 °F -20.9 °F 42% 29.94 in 15.0 mi North 10.4 mph - N/A   Unknown
5:00 PM -2.9 °F -18.8 °F -20.9 °F 42% 29.91 in 10.0 mi North 9.2 mph - N/A Snow Light Snow
6:00 PM -2.9 °F -18.8 °F -20.0 °F 44% 29.89 in 10.0 mi North 9.2 mph - N/A   Overcast
7:00 PM -2.9 °F -18.8 °F -20.9 °F 42% 29.88 in 7.0 mi North 9.2 mph - N/A Snow Light Snow
7:17 PM - - - N/A% 29.82 in 10.0 mi North 11.5 mph - N/A   Unknown
8:00 PM -2.9 °F -18.8 °F -20.0 °F 44% 29.86 in 10.0 mi North 9.2 mph - N/A Snow Light Snow
9:00 PM -2.9 °F -19.8 °F -20.0 °F 44% 29.83 in 10.0 mi North 10.4 mph - N/A Snow Light Snow
10:00 PM -2.9 °F -20.8 °F -20.0 °F 44% 29.82 in 10.0 mi NNW 11.5 mph - N/A   Overcast
11:00 PM -2.9 °F -20.8 °F -20.0 °F 44% 29.81 in 10.0 mi North 11.5 mph - N/A   Overcast